Погода в Озерном

Россия / Тюменская область     56°48′02″N   71°15′32″E
темп.,
°C
ветер,
м/с
пор.,
м/с
влажн.,
%
обл.,
%
осадки,
мм/ч
давл.,
гПа
погр.,
м
21 июня, пн
пн2123:00+7сз5985100 0.1 1002695
02:00+6сз51190100 0.0 1002538
05:00+9ссв81698100 3.1 1002948
08:00+13ссв8148679 0.1 1006985
11:00+16ссв811596 0.8 10091730
14:00+18ссв81155100 0.2 10111874
17:00+15ссв710788 1.1 10141340
20:00+12ссз5116653 0.2 1015439
22 июня, вт
вт2223:00+11с411685 0.2 1016436
02:00+6с369420 0.0 1017119
05:00+8ссз2686100 0.0 1017191
08:00+11ссз347546 0.1 1018366
11:00+15ссз3547100 0.2 10172078
14:00+16ссз3544100 0.0 10162057
17:00+16с2554100 0.0 10161978
20:00+13с1167100 0.1 101611
23 июня, ср
ср2323:00+10всв238380 0.4 101588
02:00+8ссв2290100 0.0 101522
05:00+9ссв1392100 0.2 1015132
08:00+10ссв358490 0.3 1015412
11:00+13с566986 0.9 10151285
14:00+13с5873100 0.9 10161148
17:00+13ссв5856100 1.1 10161396
20:00+10с4979100 0.3 1016382
24 июня, чт
чт2423:00+8ссз378586 0.3 1015199
02:00+6ссз269388 0.0 1015136
05:00+5ссз359223 0.0 1015176
08:00+10ссз356544 0.0 1015882
11:00+14с345081 0.0 10141771
14:00+14сз4451100 0.0 10141083
17:00+14ссз3457100 0.0 10151210
20:00+12ссз226985 0.0 101534
25 июня, пт
пт2523:00+11ссз2468100 0.0 101575
02:00+7сз358295 0.0 101585
05:00+8ссз2484100 0.0 1016103
08:00+13сз2365100 0.0 1015427
11:00+16сз225299 0.0 10141265
14:00+18зсз334961 0.0 10131581
17:00+18зсз225269 0.0 10121428
20:00+15юз226910 0.0 101231